Location: *
(50.6089°N, 2.2719°E)
Time: 05:00:25
(UTC+00:00)

Cosmos 2297 Rocket - Pass Details

Date: 18 October 2019
Orbit: 840 x 842 km, 71.0° (Epoch: 18 November)

Event Time Altitude Azimuth Distance (km) Brightness Sun altitude
Rises 20:27:11 0° 330° (NNW) 3,408 6.1 -33.7°
Reaches altitude 10° 20:30:47 10° 353° (N) 2,471 5.0 -34.2°
Enters shadow 20:32:42 14° 12° (NNE) 2,183 4.5 -34.5°
